This is the latest recevied weather packets stored in our database for station/object N4MGC. If no packets are shown the sender has not sent any weather packets the latest 10 day(s).
| Time | Temp. | Humidity | Pressure | Rain* | Wind** | Luminosity | Snow |
|---|---|---|---|---|---|---|---|
| 1777494170 | 27.78° C | 77% | 1011.3 hPa | 0 mm | - | 288 W/m² | - |
| 1777493868 | 27.22° C | 75% | 1011.2 hPa | 0 mm | - | 260 W/m² | - |
| 1777493566 | 27.22° C | 78% | 1011 hPa | 0 mm | - | 235 W/m² | - |
| 1777493263 | 27.78° C | 75% | 1011.1 hPa | 0 mm | - | 425 W/m² | - |
| 1777492959 | 27.78° C | 77% | 1011.1 hPa | 0 mm | - | 331 W/m² | - |
| 1777492657 | 28.33° C | 78% | 1011.2 hPa | 0 mm | - | 306 W/m² | - |
| 1777492351 | 28.33° C | 74% | 1011.4 hPa | 0 mm | - | 276 W/m² | - |
| 1777492048 | 28.33° C | 74% | 1011.7 hPa | 0 mm | - | 615 W/m² | - |
| 1777491745 | 27.78° C | 78% | 1011.3 hPa | 0 mm | - | 543 W/m² | - |
| 1777491442 | 27.78° C | 78% | 1011.4 hPa | 0 mm | - | 229 W/m² | - |
| 1777491139 | 27.78° C | 75% | 1011.3 hPa | 0 mm | - | 724 W/m² | - |
| 1777490834 | 27.78° C | 77% | 1011.6 hPa | 0 mm | - | 601 W/m² | - |
| 1777490531 | 27.22° C | 77% | 1011.8 hPa | 0 mm | - | 692 W/m² | - |
| 1777490227 | 27.78° C | 80% | 1011.8 hPa | 0 mm | - | 711 W/m² | - |
| 1777489925 | 27.78° C | 77% | 1011.8 hPa | 0 mm | - | 610 W/m² | - |
| 1777489622 | 26.67° C | 80% | 1012 hPa | 0 mm | - | 643 W/m² | - |
| 1777489319 | 27.22° C | 78% | 1012.3 hPa | 0 mm | - | 316 W/m² | - |
| 1777489016 | 26.67° C | 80% | 1012.4 hPa | 0 mm | - | 643 W/m² | - |
| 1777488713 | 26.67° C | 83% | 1012.6 hPa | 0 mm | - | 637 W/m² | - |
| 1777488410 | 26.11° C | 84% | 1012.7 hPa | 0 mm | - | 606 W/m² | - |
| 1777488109 | 26.11° C | 83% | 1012.6 hPa | 0 mm | - | 520 W/m² | - |
| 1777487806 | 26.11° C | 83% | 1012.6 hPa | 0 mm | - | 597 W/m² | - |
| 1777487504 | 26.11° C | 85% | 1012.7 hPa | 0 mm | - | 464 W/m² | - |
| 1777487201 | 26.11° C | 83% | 1012.9 hPa | 0 mm | - | 669 W/m² | - |
| 1777486897 | 25.56° C | 86% | 1013 hPa | 0 mm | - | 575 W/m² | - |
* Rain latest hour (hover to see other rain measurements)
** Current wind speed in m/s (hover to see current wind gust speed)